Location: Cheyres
(46.8153°N, 6.7877°E)
Time: 00:41:48
(UTC+00:00)

CUBEBUG 2 - Pass Details

Date: 06 July 2022
Orbit: 584 x 692 km, 97.7° (Epoch: 16 August)

Event Time Altitude Azimuth Distance (km) Brightness Sun altitude
Rises 02:32:23 0° 14° (NNE) 2,849 ? -10.1°
Reaches altitude 10° 02:34:33 10° 16° (NNE) 1,953 ? -9.8°
Maximum altitude 02:38:47 78° 102° (ESE) 632 ? -9.4°
Drops below altitude 10° 02:43:08 10° 190° (S) 1,996 ? -8.9°
Enters shadow 02:43:45 - 190° (S) 2,253 ? -8.8°
